STARLINK-5141 (55500 NORAD) Tracking and Keplerian Element Data

This shows tracking and keplerian element data for the satellite.

Feedback or suggestion? Click here.




ElementValue
Catalog55500
NameSTARLINK-5141
Epoch Orbit823
Epoch Day85.25001157
Epoch Year2023
RAAN83.9968
Inclination43.0016
Eccentricity0.0001435
Argument of Perigee279.6429
Mean Anonmoly33.199
Mean Motion15.02540934
Decay Rate-0.00014378
L11 55500U 23015BD 23085.25001157 -.00014378 00000+0 -10513-2 0 9991
L22 55500 43.0016 83.9968 0001435 279.6429 33.1990 15.02540934 8237



Live tracking and technical data element details for STARLINK-5141 (NORAD 55500). STARLINK-5141 can be tracked NOW for your location showing map with azimuth and elevation plus other details from your city location.







IsCatalogInMostPopularTable: catalog: 55500, numindb: -1

Insert: records affected: 1


GetName: 55500 STARLINK-5141

Hit Count: inserted at: Tue, 28 Mar 2023 01:58:31 GMT